[[{"header":{"parameterUnit":"m.s-1","parameterCategory":1,"la1":30.2991,"la2":30.254,"lo1":-89.0895,"lo2":-89.0444,"dy":0.0017,"dx":0.0017,"nx":28,"ny":28,"refTime":"2023-10-15T03:00:00:Z","depth":0,"parameterNumber":2,"parameterNumberName":"U-component_of_WINDS"},"data":[0,0,0,0,0,0,0,0,0,0,0,0,0,0,0,0,0,0,0,0,0,0,0,0,0,0,0,0,0,0,0,0,0,0,0,0,0,0,0,0,0,0,0,0,0,0,0,0,0,0,0,0,0,0,0,0,0,0,1.9726,1.9727,0,1.9742,1.9742,1.9742,1.9733,1.9733,1.9733,1.9732,1.9748,1.9749,1.975,0,0,0,0,0,0,0,0,0,0,0,0,0,1.969,1.9691,1.9726,1.9727,1.9727,1.9742,1.9742,1.9742,1.9734,1.9733,1.9732,1.9732,1.9748,1.9749,1.975,0,0,0,0,0,0,0,0,0,0,0,0,0,1.9706,1.9691,1.9726,1.9724,1.9724,1.9742,1.9742,1.9742,1.9734,1.9733,1.9732,1.9732,1.9748,1.9749,1.975,1.9771,0,0,1.9754,1.9755,0,0,0,0,0,0,0,0,1.9705,1.9707,1.9724,1.9724,1.9724,1.9735,1.9735,1.9752,1.9734,1.973,1.9732,1.9731,1.9744,1.9746,1.975,1.9772,1.9772,1.9754,1.9755,1.9755,1.9756,0,0,0,0,0,0,0,1.9704,1.9707,1.9733,1.9725,1.9725,1.9723,1.9724,1.9739,1.9741,1.973,1.973,1.9732,1.9744,1.9749,1.9751,1.9773,1.9754,1.9755,1.9756,1.9756,1.9814,1.9815,0,0,0,0,0,0,1.9703,1.9706,1.9732,1.9733,1.9713,1.9724,1.9726,1.9732,1.9741,1.9741,1.9732,1.9731,1.9747,1.9749,1.9751,1.9777,1.9755,1.9757,1.9757,1.9813,1.9814,1.9815,0,0,0,0,0,0,1.9702,1.9705,1.9731,1.9719,1.9722,1.9725,1.9733,1.9733,1.9738,1.9742,1.9742,1.9737,1.9747,1.9749,1.9767,1.9777,1.9757,1.9758,1.9812,1.9814,1.9815,1.9829,0,0,0,0,0,0,1.9701,1.9705,1.9713,1.9719,1.9723,1.9746,1.9733,1.9734,1.974,1.9739,1.9746,1.9747,1.9747,1.9765,1.9768,1.9779,1.9759,1.9811,1.9813,1.9814,1.9827,1.983,1.9833,0,0,0,0,0,1.97,1.9715,1.9713,1.9716,1.9732,1.9747,1.9749,1.9748,1.9741,1.9749,1.9752,1.9747,1.9776,1.9767,1.977,1.9782,1.9811,1.9813,1.9814,1.9826,1.9829,1.9832,0,0,0,0,0,0,1.9709,1.9716,1.9714,1.9732,1.9739,1.9745,1.9755,1.9752,1.9761,1.9759,1.9758,1.976,1.9778,1.9782,1.9771,1.9803,1.9792,1.9795,1.98,1.9803,1.9806,1.9805,1.976,0,0,0,0,0,1.9713,1.9724,1.973,1.9745,1.9749,1.9752,1.9758,1.9757,1.9764,1.9767,1.9771,1.9779,1.979,1.9797,1.9807,1.9828,1.983,1.9838,1.9841,1.9843,1.9845,1.9858,1.9861,1.9821,1.9821,1.9821,0,0,1.9722,1.9727,1.9734,1.9747,1.9753,1.9764,1.9754,1.9766,1.9775,1.9769,1.9785,1.9789,1.9797,1.9817,1.9826,1.982,1.9857,1.9845,1.9847,1.9848,1.986,1.9864,1.9867,1.9822,1.9822,1.9822,0,0,1.9744,1.9748,1.9762,1.9768,1.9777,1.9779,1.9782,1.979,1.9792,1.9809,1.9805,1.9816,1.9835,1.9841,1.9847,1.9874,1.987,1.9877,1.9891,1.9904,1.9907,1.991,1.992,1.9924,1.988,1.988,1.988,0,1.9753,1.977,1.977,1.9783,1.979,1.9785,1.98,1.9806,1.9818,1.9823,1.9817,1.9841,1.9847,1.9868,1.9875,1.988,1.9884,1.9876,1.9907,1.9909,1.9912,1.9922,1.9926,1.988,1.988,1.988,1.988,0,1.9782,1.9794,1.9805,1.9816,1.9824,1.9838,1.9841,1.9849,1.9848,1.9851,1.9869,1.9876,1.9888,1.9893,1.9892,1.9916,1.9912,1.9907,1.9895,1.9917,1.9926,1.993,1.9882,1.9881,1.9881,1.9881,0,0,1.9808,1.9821,1.9825,1.9831,1.9841,1.9851,1.9866,1.9878,1.9885,1.9894,1.9907,1.9924,1.992,1.9926,1.9926,1.9937,1.9959,1.993,1.9931,1.9936,1.9987,1.9991,1.9995,1.9957,1.9958,1.9959,1.9986,0,1.9831,1.9856,1.9857,1.988,1.9892,1.9889,1.9902,1.991,1.9914,1.9925,1.993,1.9942,1.9935,1.9939,1.995,1.9954,1.997,1.9952,1.997,1.997,1.9967,2.0,2.0004,2.003,1.999,1.999,1.9991,0,1.986,1.987,1.9895,1.9905,1.991,1.9922,1.9934,1.9945,1.9955,1.9957,1.9965,1.9964,1.998,1.997,1.9992,1.9981,1.9988,1.9992,1.9993,1.9994,1.9981,2.0002,2.0038,2.0042,1.9996,1.9996,1.9996,0,1.9877,1.9897,1.9915,1.992,1.9932,1.9941,1.9946,1.9956,1.9964,1.9975,1.998,1.9993,2.0,2.0011,2.0014,2.0005,2.0037,2.0026,2.004,2.004,2.0046,2.0045,2.0083,2.0051,2.0051,2.005,2.005,0,1.9902,1.9917,1.9923,1.9934,1.9951,1.9954,1.9971,1.9976,1.9985,1.9997,1.9996,2.0008,2.0011,2.0024,2.0026,2.0045,2.0048,2.0051,2.0052,2.0051,2.0051,2.0056,2.0054,2.0051,2.0051,2.0051,2.0051,0,1.9924,1.9928,1.9947,1.9958,1.9961,1.9974,1.9983,1.9994,1.9998,2.0014,2.0018,2.0025,2.004,2.0045,2.0062,2.0064,2.0087,2.0086,2.0083,2.0083,2.0097,2.0096,2.0139,2.0145,2.0109,2.0109,2.0109,0,1.9939,1.9951,1.9963,1.9972,1.9978,1.9991,2.0,2.0003,2.0012,2.0026,2.0035,2.005,2.0063,2.0087,2.0094,2.0108,2.0108,2.0122,2.011,2.0109,2.0108,2.0108,2.0109,2.0124,2.0124,2.0125,2.0125,0,1.9967,1.9969,1.9981,1.9995,2.0005,2.0016,2.0026,2.0034,2.0039,2.0049,2.0065,2.0074,2.0094,2.0109,2.0124,2.013,2.0129,2.0129,2.0133,2.0132,2.0131,2.0132,2.009,2.0128,2.0127,2.0127,2.0127,2.0127,1.9986,1.9997,2.0008,2.0022,2.0031,2.0041,2.0052,2.0058,2.0072,2.0087,2.0089,2.0106,2.0118,2.0138,2.0145,2.016,2.0155,2.0161,2.0162,2.0164,2.0165,2.0129,2.0162,2.0162,2.0162,2.0162,2.0162,0,2.0013,2.0021,2.0034,2.0049,2.0061,2.0059,2.0071,2.0081,2.0096,2.0107,2.012,2.0139,2.0154,2.0163,2.0179,2.0189,2.0189,2.0193,2.0192,2.0194,2.0168,2.0163,2.0193,2.0193,2.0193,2.0193,2.0193,2.0193,2.0029,2.0048,2.0052,2.0075,2.0083,2.01,2.0107,2.0117,2.0126,2.0147,2.016,2.0166,2.0177,2.0194,2.0208,2.0211,2.0217,2.0221,2.0223,2.0199,2.0195,2.0192,2.0188,2.0223,2.0223,2.0248,2.0249,2.0249]},{"header":{"parameterUnit":"m.s-1","parameterCategory":1,"la1":30.2991,"la2":30.254,"lo1":-89.0895,"lo2":-89.0444,"dy":0.0017,"dx":0.0017,"nx":28,"ny":28,"refTime":"2023-10-15T03:00:00:Z","depth":0,"parameterNumber":3,"parameterNumberName":"V-component_of_WINDS"},"data":[0,0,0,0,0,0,0,0,0,0,0,0,0,0,0,0,0,0,0,0,0,0,0,0,0,0,0,0,0,0,0,0,0,0,0,0,0,0,0,0,0,0,0,0,0,0,0,0,0,0,0,0,0,0,0,0,0,0,-6.2581,-6.2582,0,-6.2676,-6.2677,-6.2678,-6.2675,-6.2674,-6.2673,-6.2672,-6.2762,-6.2766,-6.2769,0,0,0,0,0,0,0,0,0,0,0,0,0,-6.2395,-6.2398,-6.2581,-6.2582,-6.2584,-6.2675,-6.2677,-6.2678,-6.2676,-6.2674,-6.2672,-6.2671,-6.2761,-6.2765,-6.277,0,0,0,0,0,0,0,0,0,0,0,0,0,-6.2481,-6.2399,-6.2581,-6.2593,-6.2596,-6.2675,-6.2677,-6.2678,-6.2676,-6.2674,-6.2672,-6.267,-6.276,-6.2765,-6.277,-6.2842,0,0,-6.2787,-6.2789,0,0,0,0,0,0,0,0,-6.2476,-6.2488,-6.259,-6.2593,-6.2595,-6.2662,-6.2644,-6.2733,-6.2676,-6.2645,-6.2672,-6.2669,-6.273,-6.2738,-6.2759,-6.2846,-6.285,-6.2787,-6.2791,-6.2793,-6.2794,0,0,0,0,0,0,0,-6.247,-6.2484,-6.2618,-6.2592,-6.2595,-6.2593,-6.2603,-6.2661,-6.2697,-6.2648,-6.2648,-6.2659,-6.2731,-6.2754,-6.2762,-6.2851,-6.2787,-6.2792,-6.2795,-6.2797,-6.3004,-6.3006,0,0,0,0,0,0,-6.2462,-6.2479,-6.2615,-6.2621,-6.253,-6.2598,-6.2609,-6.2642,-6.2696,-6.2703,-6.2661,-6.2659,-6.2746,-6.2755,-6.2765,-6.2854,-6.2793,-6.2798,-6.2801,-6.3001,-6.3004,-6.3006,0,0,0,0,0,0,-6.2458,-6.2474,-6.2611,-6.255,-6.2567,-6.2603,-6.264,-6.2645,-6.2669,-6.2706,-6.2712,-6.2678,-6.2745,-6.2757,-6.2824,-6.2857,-6.28,-6.2805,-6.2999,-6.3002,-6.3005,-6.3031,0,0,0,0,0,0,-6.2453,-6.2473,-6.2501,-6.2551,-6.2571,-6.267,-6.2642,-6.2648,-6.2679,-6.2677,-6.2724,-6.273,-6.2744,-6.2816,-6.2829,-6.2863,-6.2809,-6.2996,-6.3,-6.3004,-6.3027,-6.3035,-6.3041,0,0,0,0,0,-6.2446,-6.2503,-6.2503,-6.2519,-6.2607,-6.2672,-6.2683,-6.27,-6.2681,-6.271,-6.2734,-6.2729,-6.2851,-6.2822,-6.2837,-6.2874,-6.2994,-6.2999,-6.3004,-6.3024,-6.3033,-6.3041,0,0,0,0,0,0,-6.2453,-6.2509,-6.251,-6.2584,-6.2624,-6.2671,-6.2707,-6.2708,-6.2752,-6.2748,-6.2765,-6.2776,-6.2843,-6.2865,-6.2832,-6.2947,-6.292,-6.2928,-6.293,-6.2939,-6.2946,-6.2939,-6.2814,0,0,0,0,0,-6.2464,-6.2514,-6.2559,-6.262,-6.2641,-6.2671,-6.27,-6.271,-6.275,-6.2766,-6.2795,-6.2833,-6.2881,-6.2911,-6.2956,-6.3031,-6.3042,-6.3063,-6.307,-6.3076,-6.3083,-6.3125,-6.3136,-6.3023,-6.3023,-6.3023,0,0,-6.2485,-6.2522,-6.2552,-6.2623,-6.2655,-6.2705,-6.2685,-6.2738,-6.2775,-6.2773,-6.2839,-6.2862,-6.2906,-6.2977,-6.301,-6.2997,-6.3117,-6.3082,-6.3086,-6.309,-6.3132,-6.3142,-6.3152,-6.3026,-6.3026,-6.3025,0,0,-6.2551,-6.2584,-6.264,-6.2673,-6.2722,-6.2742,-6.2756,-6.2804,-6.282,-6.2887,-6.2888,-6.2931,-6.3012,-6.3044,-6.307,-6.3152,-6.3148,-6.3166,-6.3202,-6.3243,-6.3252,-6.326,-6.329,-6.3301,-6.3172,-6.3172,-6.3172,0,-6.2571,-6.2648,-6.2667,-6.2723,-6.2754,-6.2758,-6.2815,-6.2845,-6.2905,-6.2927,-6.2912,-6.3016,-6.3045,-6.3125,-6.3145,-6.3166,-6.3182,-6.316,-6.325,-6.3258,-6.3266,-6.3294,-6.3306,-6.3174,-6.3174,-6.3174,-6.3174,0,-6.2671,-6.2725,-6.2764,-6.2826,-6.2862,-6.2917,-6.2944,-6.2978,-6.2985,-6.3007,-6.3075,-6.3111,-6.3165,-6.3185,-6.3191,-6.3267,-6.3258,-6.3246,-6.3219,-6.3278,-6.3305,-6.3316,-6.3177,-6.3176,-6.3176,-6.3175,0,0,-6.2741,-6.2816,-6.283,-6.286,-6.2916,-6.2957,-6.3013,-6.3068,-6.3097,-6.3139,-6.3187,-6.3256,-6.3247,-6.3278,-6.3288,-6.3324,-6.3388,-6.3309,-6.331,-6.3323,-6.3475,-6.3484,-6.3496,-6.3387,-6.3389,-6.3391,-6.3472,0,-6.2813,-6.2915,-6.2936,-6.3023,-6.3073,-6.3079,-6.3128,-6.3167,-6.319,-6.3235,-6.3258,-6.3308,-6.3292,-6.3311,-6.3347,-6.3373,-6.3419,-6.3367,-6.343,-6.3432,-6.342,-6.351,-6.3519,-6.3593,-6.3482,-6.3484,-6.3485,0,-6.291,-6.2959,-6.3052,-6.3105,-6.3126,-6.317,-6.3224,-6.3267,-6.3312,-6.3326,-6.3362,-6.3368,-6.3426,-6.3397,-6.3477,-6.3442,-6.3469,-6.3486,-6.3489,-6.3496,-6.3463,-6.352,-6.3617,-6.3629,-6.3502,-6.3501,-6.35,0,-6.2954,-6.3042,-6.311,-6.3135,-6.3197,-6.3228,-6.3255,-6.3298,-6.3331,-6.3377,-6.3399,-6.345,-6.3479,-6.3518,-6.3539,-6.3515,-6.3618,-6.359,-6.363,-6.363,-6.3651,-6.365,-6.3755,-6.3668,-6.3668,-6.3668,-6.3667,0,-6.3033,-6.309,-6.3131,-6.3173,-6.3238,-6.3261,-6.3323,-6.335,-6.3389,-6.3435,-6.3442,-6.3485,-6.351,-6.3557,-6.3573,-6.3637,-6.3649,-6.3662,-6.3666,-6.3662,-6.366,-6.368,-6.3675,-6.3671,-6.367,-6.3669,-6.3669,0,-6.3092,-6.3122,-6.3197,-6.3251,-6.3266,-6.3311,-6.3357,-6.3398,-6.3421,-6.348,-6.3495,-6.3531,-6.3586,-6.3611,-6.3679,-6.369,-6.3764,-6.3763,-6.375,-6.3751,-6.3791,-6.3787,-6.3913,-6.3931,-6.3831,-6.3832,-6.3832,0,-6.314,-6.3185,-6.3245,-6.3279,-6.3307,-6.336,-6.3395,-6.3419,-6.3455,-6.3511,-6.3545,-6.3601,-6.3648,-6.3736,-6.3767,-6.382,-6.3821,-6.3862,-6.3828,-6.3824,-6.3823,-6.382,-6.3825,-6.3867,-6.3868,-6.3869,-6.387,0,-6.3223,-6.3237,-6.3288,-6.3345,-6.3387,-6.3432,-6.3476,-6.3503,-6.3534,-6.3574,-6.3632,-6.3669,-6.374,-6.3796,-6.3851,-6.3877,-6.3879,-6.388,-6.3893,-6.3889,-6.388,-6.3887,-6.3767,-6.3877,-6.3876,-6.3876,-6.3875,-6.3875,-6.3279,-6.3321,-6.3371,-6.3427,-6.3464,-6.3506,-6.3548,-6.3578,-6.3628,-6.369,-6.3701,-6.3763,-6.3809,-6.3883,-6.3912,-6.3961,-6.395,-6.3968,-6.3972,-6.3977,-6.398,-6.3872,-6.397,-6.397,-6.397,-6.397,-6.397,0,-6.3364,-6.3397,-6.345,-6.3513,-6.3559,-6.3559,-6.3609,-6.3646,-6.3702,-6.3745,-6.3792,-6.386,-6.3916,-6.3953,-6.4008,-6.404,-6.4043,-6.4054,-6.4052,-6.4058,-6.3985,-6.3969,-6.4051,-6.4051,-6.4051,-6.4051,-6.4051,-6.4051,-6.3413,-6.3484,-6.3504,-6.3592,-6.3625,-6.3688,-6.3717,-6.3756,-6.3791,-6.3868,-6.3915,-6.3939,-6.398,-6.404,-6.409,-6.41,-6.412,-6.4132,-6.4141,-6.4072,-6.4063,-6.4055,-6.4041,-6.4136,-6.4137,-6.4211,-6.4212,-6.4212]}]]